Weather History for Bullhead City, AZ

Change the Weather History Date:

Saturday, May 11, 2013

  Actual Average Record
Temperature  
Mean Temperature 88 °F -  
Max Temperature 100 °F 91 °F 107 °F (1993)
Min Temperature 75 °F 69 °F 49 °F (1991)
Cooling Degree Days 22    
Growing Degree Days 38 (Base 50)    
Moisture  
Dew Point 32 °F    
Average Humidity 15    
Maximum Humidity 26    
Minimum Humidity 7    
Precipitation  
Precipitation 0.00 in - - ()
Sea Level Pressure  
Sea Level Pressure 30.00 in    
Wind  
Wind Speed 11 mph (NNE)    
Max Wind Speed 18 mph    
Max Gust Speed 23 mph    
Visibility 10 miles    
Events Thunderstorm    
Averages and records for this station are not official NWS values.
T = Trace of Precipitation, MM = Missing Value Source: NWS Daily Summary

Daily Weather History Graph

Daily Weather History Graph

Search for Another Location

Airport:

Trip Planner

Search our weather history database for the weather conditions in past years. The results will help you decide how hot, cold, wet, or windy it might be!

Date:

Astronomy

May. 11, 2013 Rise Set
Actual Time 5:37 AM MST 7:32 PM MST
Civil Twilight 5:09 AM MST 8:00 PM MST
Nautical Twilight 4:35 AM MST 8:34 PM MST
Astronomical Twilight 3:59 AM MST 9:10 PM MST
Moon 6:49 AM MST (5/11) 9:14 PM MST (5/11)
Length of Visible Light 14h 50m
Length of Day
13h 55m
Waxing Crescent, 3% of the Moon is Illuminated
May 11
Waxing Crescent
May 17
First Quarter
May 24
Full
May 31
Last Quarter
Jun 8
New

Hourly Weather History & Observations

Time (MST) Temp. Dew Point Humidity Pressure Visibility Wind Dir Wind Speed Gust Speed Precip Events Conditions
12:15 AM 82.4 °F 37.4 °F 20% 30.00 in 10.0 mi North 10.4 mph - N/A   Clear
12:35 AM 82.4 °F 37.4 °F 20% 30.00 in 10.0 mi NNE 12.7 mph - N/A   Clear
12:55 AM 82.4 °F 37.4 °F 20% 30.00 in 10.0 mi NNE 13.8 mph - N/A   Clear
1:15 AM 82.4 °F 37.4 °F 20% 30.00 in 10.0 mi NNE 12.7 mph - N/A   Clear
1:35 AM 82.4 °F 37.4 °F 20% 30.00 in 10.0 mi NE 10.4 mph - N/A   Clear
1:55 AM 82.4 °F 37.4 °F 20% 30.00 in 10.0 mi NE 13.8 mph - N/A   Clear
2:15 AM 82.4 °F 37.4 °F 20% 30.00 in 10.0 mi North 11.5 mph - N/A   Clear
2:35 AM 80.6 °F 37.4 °F 21% 30.01 in 10.0 mi NNE 10.4 mph - N/A   Clear
2:55 AM 80.6 °F 35.6 °F 20% 30.01 in 10.0 mi NE 8.1 mph - N/A   Clear
3:15 AM 78.8 °F 37.4 °F 23% 30.02 in 10.0 mi NNW 9.2 mph - N/A   Clear
3:35 AM 77.0 °F 39.2 °F 26% 30.01 in 10.0 mi NNE 10.4 mph - N/A   Clear
3:55 AM 77.0 °F 35.6 °F 22% 30.01 in 10.0 mi ENE 8.1 mph - N/A   Clear
4:15 AM 77.0 °F 35.6 °F 22% 30.02 in 10.0 mi NNE 4.6 mph - N/A   Clear
4:35 AM 77.0 °F 37.4 °F 24% 30.02 in 10.0 mi NNE 5.8 mph - N/A   Clear
4:55 AM 75.2 °F 37.4 °F 25% 30.03 in 10.0 mi North 6.9 mph - N/A   Clear
5:35 AM 77.0 °F 37.4 °F 24% 30.03 in 10.0 mi North 10.4 mph - N/A   Clear
5:55 AM 77.0 °F 37.4 °F 24% 30.04 in 10.0 mi NE 10.4 mph - N/A   Clear
6:15 AM 77.0 °F 37.4 °F 24% 30.05 in 10.0 mi NE 9.2 mph - N/A   Clear
6:35 AM 77.0 °F 37.4 °F 24% 30.06 in 10.0 mi NE 11.5 mph - N/A   Clear
6:55 AM 78.8 °F 37.4 °F 23% 30.06 in 10.0 mi NE 12.7 mph - N/A   Clear
7:15 AM 80.6 °F 37.4 °F 21% 30.06 in 10.0 mi NNE 13.8 mph - N/A   Clear
7:35 AM 80.6 °F 37.4 °F 21% 30.06 in 10.0 mi NNE 13.8 mph - N/A   Clear
7:55 AM 82.4 °F 37.4 °F 20% 30.06 in 10.0 mi NNE 16.1 mph - N/A   Clear
8:15 AM 82.4 °F 37.4 °F 20% 30.07 in 10.0 mi NNE 16.1 mph - N/A   Clear
8:35 AM 84.2 °F 37.4 °F 19% 30.07 in 10.0 mi North 15.0 mph - N/A   Clear
8:55 AM 84.2 °F 37.4 °F 19% 30.07 in 10.0 mi North 17.3 mph 23.0 mph N/A   Clear
9:15 AM 84.2 °F 39.2 °F 20% 30.07 in 10.0 mi North 18.4 mph - N/A   Clear
9:35 AM 86.0 °F 37.4 °F 18% 30.07 in 10.0 mi North 17.3 mph - N/A   Clear
9:55 AM 87.8 °F 37.4 °F 17% 30.07 in 10.0 mi North 16.1 mph - N/A   Clear
10:15 AM 89.6 °F 35.6 °F 15% 30.07 in 10.0 mi North 11.5 mph - N/A   Clear
10:35 AM 89.6 °F 37.4 °F 16% 30.06 in 10.0 mi NNW 12.7 mph - N/A   Clear
10:55 AM 91.4 °F 35.6 °F 14% 30.06 in 10.0 mi North 11.5 mph - N/A   Clear
11:15 AM 91.4 °F 35.6 °F 14% 30.06 in 10.0 mi North 9.2 mph - N/A   Clear
11:35 AM 91.4 °F 35.6 °F 14% 30.05 in 10.0 mi NNW 12.7 mph - N/A   Clear
11:55 AM 93.2 °F 33.8 °F 12% 30.04 in 10.0 mi NNW 11.5 mph - N/A   Clear
12:15 PM 95.0 °F 32.0 °F 11% 30.04 in 10.0 mi North 10.4 mph 21.9 mph N/A   Clear
12:35 PM 95.0 °F 32.0 °F 11% 30.03 in 10.0 mi NNW 12.7 mph 17.3 mph N/A   Clear
12:55 PM 96.8 °F 32.0 °F 10% 30.03 in 10.0 mi NNE 10.4 mph - N/A   Clear
1:15 PM 95.0 °F 30.2 °F 10% 30.02 in 10.0 mi NE 13.8 mph 17.3 mph N/A   Clear
1:35 PM 96.8 °F 30.2 °F 10% 30.01 in 10.0 mi East 3.5 mph - N/A   Clear
1:55 PM 98.6 °F 28.4 °F 8% 30.00 in 10.0 mi East 9.2 mph 18.4 mph N/A   Clear
2:15 PM 98.6 °F 28.4 °F 8% 30.00 in 10.0 mi NE 13.8 mph 18.4 mph N/A   Partly Cloudy
2:35 PM 98.6 °F 28.4 °F 8% 29.98 in 10.0 mi North 8.1 mph 16.1 mph N/A   Clear
2:55 PM 98.6 °F 26.6 °F 8% 29.97 in 10.0 mi ENE 3.5 mph 19.6 mph N/A   Clear
3:15 PM 98.6 °F 26.6 °F 8% 29.96 in 10.0 mi ENE 8.1 mph - N/A   Clear
3:35 PM 100.4 °F 28.4 °F 8% 29.95 in 10.0 mi North 9.2 mph - N/A   Clear
3:55 PM 100.4 °F 26.6 °F 7% 29.94 in 10.0 mi North 9.2 mph - N/A   Clear
4:15 PM 100.4 °F 26.6 °F 7% 29.94 in 10.0 mi East 15.0 mph 20.7 mph N/A   Clear
4:35 PM 98.6 °F 26.6 °F 8% 29.94 in 10.0 mi North 6.9 mph - N/A   Clear
4:55 PM 98.6 °F 26.6 °F 8% 29.93 in 10.0 mi NNE 4.6 mph - N/A   Clear
5:15 PM 98.6 °F 26.6 °F 8% 29.93 in 10.0 mi NNW 9.2 mph - N/A Thunderstorm Clear
5:35 PM 98.6 °F 26.6 °F 8% 29.93 in 10.0 mi North 5.8 mph - N/A   Clear
5:55 PM 98.6 °F 26.6 °F 8% 29.92 in 10.0 mi North 10.4 mph 21.9 mph N/A   Clear
6:15 PM 98.6 °F 26.6 °F 8% 29.92 in 10.0 mi NW 6.9 mph - N/A   Clear
6:35 PM 98.6 °F 28.4 °F 8% 29.92 in 10.0 mi NNE 6.9 mph - N/A   Clear
6:55 PM 98.6 °F 26.6 °F 8% 29.93 in 10.0 mi North 11.5 mph - N/A   Clear
7:15 PM 96.8 °F 26.6 °F 8% 29.93 in 10.0 mi NE 8.1 mph - N/A   Clear
7:35 PM 95.0 °F 26.6 °F 9% 29.94 in 10.0 mi NE 8.1 mph - N/A   Clear
7:55 PM 95.0 °F 26.6 °F 9% 29.95 in 10.0 mi NNE 6.9 mph - N/A   Clear
8:35 PM 95.0 °F 26.6 °F 9% 29.96 in 10.0 mi North 9.2 mph - N/A   Clear
8:55 PM 91.4 °F 26.6 °F 10% 29.96 in 10.0 mi NE 6.9 mph - N/A   Clear
9:15 PM 91.4 °F 26.6 °F 10% 29.97 in 10.0 mi NE 6.9 mph - N/A   Clear
9:35 PM 91.4 °F 26.6 °F 10% 29.98 in 10.0 mi NE 8.1 mph - N/A   Clear
9:55 PM 87.8 °F 26.6 °F 11% 29.99 in 10.0 mi NNE 3.5 mph - N/A   Clear
10:15 PM 89.6 °F 26.6 °F 10% 29.99 in 10.0 mi ENE 3.5 mph - N/A   Clear
10:35 PM 87.8 °F 26.6 °F 11% 30.00 in 10.0 mi ENE 5.8 mph - N/A   Clear
10:55 PM 86.0 °F 26.6 °F 12% 30.00 in 10.0 mi East 6.9 mph - N/A   Clear
11:15 PM 86.0 °F 24.8 °F 11% 30.00 in 10.0 mi East 6.9 mph - N/A   Clear
11:35 PM 86.0 °F 24.8 °F 11% 30.00 in 10.0 mi East 9.2 mph - N/A   Clear
11:55 PM 84.2 °F 26.6 °F 12% 30.01 in 10.0 mi South 3.5 mph - N/A   Clear